Location: ????????
(55.3939°N, 37.4780°E)
Time: 22:32:32
(UTC+00:00)

SL-16 R/B - Pass Details

Date: 14 April 2026
Orbit: 839 x 849 km, 71.0° (Epoch: 13 May)

Event Time Altitude Azimuth Distance (km) Brightness Sun altitude
Exits shadow 21:13:15 22° 250° (WSW) 1,770 3.7 -24.9°
Maximum altitude 21:16:41 48° 314° (NW) 1,096 3.0 -24.9°
Drops below altitude 10° 21:22:12 10° 29° (NNE) 2,481 5.4 -24.9°
Sets 21:24:45 0° 35° (NE) 3,420 6.2 -24.9°
